TimeEST,TemperatureF,Dew PointF,Humidity,Sea Level PressureIn,VisibilityMPH,Wind Direction,Wind SpeedMPH,Gust SpeedMPH,PrecipitationIn,Events,Conditions,WindDirDegrees,DateUTC
12:15 AM,55.4,55.4,100,29.97,0.8,South,6.9,-,N/A,,Overcast,180,2013-01-14 05:15:00
12:35 AM,57.2,57.2,100,29.97,4.0,West,6.9,-,N/A,,Overcast,270,2013-01-14 05:35:00
12:55 AM,55.4,55.4,100,29.98,1.0,WSW,3.5,-,N/A,,Overcast,250,2013-01-14 05:55:00
1:15 AM,55.4,55.4,100,29.97,3.0,South,4.6,-,N/A,,Mostly Cloudy,190,2013-01-14 06:15:00
1:35 AM,55.4,55.4,100,29.98,2.0,SSW,3.5,-,N/A,,Overcast,210,2013-01-14 06:35:00
2:15 AM,55.4,55.4,100,29.99,5.0,West,3.5,-,N/A,,Overcast,270,2013-01-14 07:15:00
2:35 AM,57.2,57.2,100,30.01,7.0,Calm,Calm,-,N/A,,Scattered Clouds,0,2013-01-14 07:35:00
2:55 AM,55.4,55.4,100,29.98,2.0,SE,5.8,-,N/A,,Scattered Clouds,130,2013-01-14 07:55:00
3:15 AM,55.4,55.4,100,29.97,3.0,South,4.6,-,N/A,,Mostly Cloudy,180,2013-01-14 08:15:00
3:35 AM,57.2,57.2,100,29.98,5.0,SW,4.6,-,N/A,,Overcast,220,2013-01-14 08:35:00
3:55 AM,57.2,57.2,100,29.98,7.0,SW,3.5,-,N/A,Rain,Light Rain,230,2013-01-14 08:55:00
5:15 AM,55.4,55.4,100,29.98,3.0,Calm,Calm,-,N/A,,Clear,0,2013-01-14 10:15:00
5:35 AM,55.4,55.4,100,29.98,1.5,North,-9999.0,-,N/A,,Mist,0,2013-01-14 10:35:00
5:55 AM,55.4,55.4,100,29.98,1.8,Calm,Calm,-,N/A,,Mist,0,2013-01-14 10:55:00
6:15 AM,53.6,53.6,100,30.01,0.8,West,3.5,-,N/A,,Mostly Cloudy,270,2013-01-14 11:15:00
6:35 AM,53.6,53.6,100,30.01,0.5,Calm,Calm,-,N/A,Fog,Fog,0,2013-01-14 11:35:00
7:15 AM,55.4,55.4,100,30.04,4.0,NNW,3.5,-,N/A,,Mostly Cloudy,340,2013-01-14 12:15:00
7:35 AM,57.2,57.2,100,30.08,10.0,North,21.9,27.6,0.01,,Overcast,350,2013-01-14 12:35:00
7:55 AM,53.6,53.6,100,30.09,10.0,North,11.5,-,0.01,,Overcast,350,2013-01-14 12:55:00
8:15 AM,53.6,53.6,100,30.11,10.0,NNW,8.1,-,N/A,,Overcast,340,2013-01-14 13:15:00
8:35 AM,53.6,53.6,100,30.13,10.0,North,5.8,-,N/A,,Overcast,360,2013-01-14 13:35:00
8:55 AM,53.6,53.6,100,30.14,10.0,North,8.1,-,N/A,,Overcast,360,2013-01-14 13:55:00
9:15 AM,53.6,53.6,100,30.14,10.0,North,6.9,-,N/A,,Overcast,350,2013-01-14 14:15:00
9:35 AM,55.4,51.8,88,30.15,10.0,North,8.1,-,N/A,,Overcast,350,2013-01-14 14:35:00
9:55 AM,55.4,50.0,82,30.16,10.0,NNW,9.2,-,N/A,,Overcast,340,2013-01-14 14:55:00
10:15 AM,55.4,50.0,82,30.18,10.0,NNW,6.9,-,N/A,,Overcast,330,2013-01-14 15:15:00
10:35 AM,55.4,50.0,82,30.18,10.0,North,6.9,-,N/A,,Overcast,350,2013-01-14 15:35:00
10:55 AM,55.4,48.2,77,30.18,10.0,North,8.1,-,N/A,,Overcast,360,2013-01-14 15:55:00
11:15 AM,53.6,44.6,72,30.18,10.0,NNW,13.8,18.4,N/A,,Overcast,340,2013-01-14 16:15:00
11:35 AM,53.6,44.6,72,30.17,10.0,North,11.5,17.3,N/A,,Overcast,350,2013-01-14 16:35:00
11:55 AM,53.6,42.8,67,30.16,10.0,North,12.7,-,N/A,,Overcast,360,2013-01-14 16:55:00
12:15 PM,51.8,42.8,71,30.16,10.0,North,17.3,20.7,N/A,,Overcast,360,2013-01-14 17:15:00
12:35 PM,51.8,42.8,71,30.16,10.0,North,13.8,20.7,N/A,,Overcast,350,2013-01-14 17:35:00
12:55 PM,51.8,42.8,71,30.18,10.0,North,15.0,21.9,N/A,,Overcast,350,2013-01-14 17:55:00
1:15 PM,51.8,41.0,67,30.16,10.0,North,12.7,19.6,N/A,,Overcast,350,2013-01-14 18:15:00
1:35 PM,51.8,41.0,67,30.16,10.0,North,10.4,-,N/A,,Overcast,10,2013-01-14 18:35:00
1:55 PM,51.8,41.0,67,30.19,10.0,North,16.1,20.7,N/A,,Overcast,10,2013-01-14 18:55:00
2:15 PM,51.8,41.0,67,30.18,10.0,North,10.4,-,N/A,,Overcast,10,2013-01-14 19:15:00
2:35 PM,51.8,41.0,67,30.18,10.0,North,6.9,-,N/A,,Overcast,10,2013-01-14 19:35:00
2:55 PM,50.0,41.0,71,30.19,10.0,North,8.1,17.3,N/A,,Overcast,360,2013-01-14 19:55:00
3:15 PM,50.0,39.2,66,30.21,10.0,North,6.9,-,N/A,,Overcast,350,2013-01-14 20:15:00
3:35 PM,50.0,39.2,66,30.20,10.0,North,9.2,-,N/A,,Overcast,10,2013-01-14 20:35:00
3:55 PM,50.0,37.4,62,30.21,10.0,North,8.1,-,N/A,,Overcast,10,2013-01-14 20:55:00
4:15 PM,50.0,37.4,62,30.21,10.0,North,5.8,-,N/A,,Overcast,350,2013-01-14 21:15:00
4:35 PM,50.0,37.4,62,30.22,10.0,NNW,8.1,-,N/A,,Overcast,330,2013-01-14 21:35:00
5:15 PM,50.0,37.4,62,30.23,10.0,NNW,5.8,-,N/A,,Overcast,330,2013-01-14 22:15:00
5:35 PM,50.0,37.4,62,30.22,10.0,NNE,3.5,-,N/A,,Overcast,20,2013-01-14 22:35:00
5:55 PM,50.0,37.4,62,30.25,10.0,North,5.8,-,N/A,,Overcast,350,2013-01-14 22:55:00
6:15 PM,50.0,37.4,62,30.25,10.0,North,5.8,-,N/A,,Overcast,360,2013-01-14 23:15:00
6:35 PM,48.2,37.4,66,30.27,10.0,North,8.1,-,N/A,,Overcast,360,2013-01-14 23:35:00
6:55 PM,46.4,39.2,76,30.29,10.0,North,10.4,-,N/A,Rain,Light Rain,350,2013-01-14 23:55:00
7:15 PM,46.4,41.0,81,30.29,10.0,North,5.8,-,N/A,Rain,Light Rain,360,2013-01-15 00:15:00
7:35 PM,46.4,37.4,71,30.29,10.0,North,9.2,-,N/A,Rain,Light Rain,360,2013-01-15 00:35:00
7:55 PM,44.6,35.6,71,30.31,10.0,North,10.4,-,N/A,Rain,Light Rain,350,2013-01-15 00:55:00
8:15 PM,44.6,35.6,71,30.31,10.0,North,11.5,18.4,N/A,Rain,Light Rain,350,2013-01-15 01:15:00
8:35 PM,42.8,37.4,81,30.31,10.0,North,11.5,-,N/A,Rain,Rain,360,2013-01-15 01:35:00
8:55 PM,42.8,37.4,81,30.31,10.0,North,11.5,-,N/A,Rain,Light Rain,350,2013-01-15 01:55:00
9:15 PM,41.0,37.4,87,30.31,10.0,North,9.2,-,N/A,Rain,Light Rain,350,2013-01-15 02:15:00
9:35 PM,41.0,37.4,87,30.31,10.0,North,8.1,-,N/A,Rain,Light Rain,360,2013-01-15 02:35:00
9:55 PM,41.0,37.4,87,30.31,7.0,North,12.7,17.3,N/A,Rain,Light Rain,350,2013-01-15 02:55:00
10:15 PM,41.0,39.2,93,30.33,5.0,NNW,11.5,-,N/A,Rain,Rain,340,2013-01-15 03:15:00
10:35 PM,41.0,39.2,93,30.33,4.0,North,10.4,-,N/A,Rain,Rain,350,2013-01-15 03:35:00
10:55 PM,41.0,39.2,93,30.32,5.0,NNE,8.1,-,N/A,Rain,Light Rain,20,2013-01-15 03:55:00
11:15 PM,39.2,39.2,100,30.31,10.0,NNE,4.6,-,N/A,Rain,Light Rain,20,2013-01-15 04:15:00
11:35 PM,39.2,39.2,100,30.31,7.0,North,3.5,-,N/A,Rain,Light Rain,360,2013-01-15 04:35:00
11:55 PM,39.2,39.2,100,30.31,5.0,Calm,Calm,-,N/A,Rain,Rain,0,2013-01-15 04:55:00